Theta_e
342 343 343 346 348 350 350 352 352 353 352 352 352 352 351 351 350 350 350 350 349 348 348 348 347 348 349 349 350 351 352 352 352 351 351 351 351 350 350 351 351 350 349 349 349 349 349 350 350 351 352 352 352 351 351 351 350 351 351 352 353 354 352 349 348 347 345 346 347 347 348 348 345 347 351 352 352 351 351 350 348 345 346 347 348
340 343 344 345 346 347 348 352 352 352 352 351 351 351 351 350 351 350 350 349 350 349 349 349 350 350 349 349 349 351 351 351 352 351 351 350 351 351 350 350 350 349 349 349 348 348 349 349 350 350 351 352 352 350 350 350 350 351 351 351 352 352 352 351 348 346 347 347 347 348 349 348 350 350 351 351 350 349 348 348 348 345 345 348 348
343 343 344 346 347 346 347 350 351 351 351 351 351 350 350 350 350 350 351 350 350 350 350 350 350 350 350 350 350 350 350 350 351 350 350 349 350 350 349 348 348 348 348 348 348 347 347 348 349 350 351 352 351 350 350 349 350 350 350 350 350 349 348 347 347 347 348 347 346 348 347 345 347 350 350 350 349 348 348 349 349 348 345 348 347
340 342 343 343 345 345 347 350 351 351 350 350 350 350 350 350 350 350 350 350 351 350 351 350 350 350 350 350 350 349 349 349 349 348 348 348 349 349 348 347 347 348 347 347 348 347 346 347 348 349 351 351 351 350 349 349 350 349 348 348 349 349 347 347 348 348 348 347 347 347 349 348 348 348 348 348 347 347 348 348 347 347 347 347 348
339 343 344 344 342 344 345 347 350 350 350 349 349 350 350 350 349 350 350 350 350 350 350 350 350 350 350 350 350 349 349 348 347 347 347 347 348 348 348 347 347 347 347 347 347 347 346 346 348 349 349 351 350 349 348 349 349 348 347 347 348 349 350 350 349 349 349 349 348 348 344 345 348 348 348 348 349 349 349 349 349 349 348 348 348
339 342 345 344 344 344 344 345 348 349 350 349 350 350 349 349 350 349 350 350 350 349 349 349 349 349 349 349 349 349 348 348 347 346 346 347 347 347 347 347 346 346 347 346 346 346 346 347 347 348 350 350 350 350 348 349 349 348 348 346 347 350 351 351 350 349 349 348 348 346 346 346 345 347 349 349 349 349 350 350 349 348 348 347 347
341 343 345 345 343 342 342 345 347 349 349 349 350 349 349 348 349 349 349 349 349 349 349 348 348 348 349 349 349 348 347 347 346 346 346 346 346 346 346 346 346 346 346 347 347 346 347 348 348 348 349 350 350 349 350 350 349 349 349 347 347 349 351 350 349 349 348 346 346 344 343 345 344 346 347 348 348 349 349 348 348 347 347 346 347
342 344 344 342 345 344 345 347 348 347 347 348 348 349 348 348 348 348 348 349 349 348 349 348 348 348 348 348 348 348 347 346 346 346 346 345 346 346 346 346 346 346 346 346 347 346 347 348 348 349 349 349 350 350 350 350 349 349 348 349 349 350 350 351 350 349 348 344 346 346 345 344 344 344 344 348 348 348 348 348 347 347 346 346 347
340 344 344 344 346 347 347 347 347 347 347 347 348 347 347 348 348 348 348 348 348 348 348 348 348 348 347 347 347 346 346 345 345 346 346 346 345 345 345 346 346 346 346 347 346 347 347 347 347 348 348 349 349 349 349 350 350 349 349 350 349 349 350 351 349 350 348 343 345 344 345 344 342 342 345 348 348 348 348 347 347 347 347 346 346
340 339 344 344 345 347 347 347 347 347 347 347 347 347 347 348 348 348 348 348 348 347 347 348 348 347 347 347 346 345 345 345 345 345 346 345 345 345 346 346 346 346 346 346 345 346 347 347 347 347 349 348 348 348 348 349 348 348 349 348 347 347 348 348 349 347 344 343 344 344 344 343 343 343 345 348 348 348 348 347 345 345 345 345 345
341 340 342 344 346 348 347 347 347 347 347 346 345 346 347 348 348 348 348 348 348 347 347 347 348 347 347 346 344 344 345 345 345 344 345 345 345 345 346 346 345 346 346 346 345 345 345 346 347 347 348 348 348 347 347 348 349 348 347 347 347 347 347 348 347 344 344 345 344 345 345 346 347 342 345 348 348 347 348 348 347 347 346 346 346
337 339 342 345 350 347 347 347 347 347 347 346 346 346 346 346 347 348 347 347 347 347 347 347 347 347 346 346 345 345 345 345 344 344 345 344 344 345 345 345 345 345 345 345 345 345 344 345 346 345 347 347 347 347 347 347 348 349 347 346 345 345 346 348 350 346 346 347 347 346 344 345 347 342 347 348 348 347 347 348 347 346 346 346 346
341 340 344 347 347 348 347 347 346 347 347 347 347 347 346 346 346 347 347 347 347 347 346 347 347 347 346 346 345 344 343 344 344 344 343 344 344 344 345 344 344 344 344 344 344 344 345 345 346 346 345 346 347 347 348 349 348 348 349 349 347 346 347 349 350 346 347 344 343 345 345 345 346 344 348 347 347 346 347 346 346 346 345 346 344
341 340 343 343 346 348 347 347 347 347 347 347 347 346 346 346 346 347 347 347 347 347 346 346 346 346 346 346 345 344 343 344 344 344 344 344 344 344 344 344 345 344 344 344 344 344 344 345 345 345 345 346 347 348 349 349 349 350 350 350 350 350 350 350 348 346 346 342 343 342 344 347 344 347 348 348 347 347 347 347 346 346 346 345 345
339 339 341 343 343 344 348 348 348 348 348 347 347 346 346 346 346 346 346 346 346 346 346 346 346 346 345 345 345 344 343 343 343 344 343 343 344 344 344 344 344 344 344 343 344 344 344 344 345 345 346 346 347 348 349 348 350 351 351 351 351 351 350 350 349 345 345 342 344 342 343 346 342 347 348 347 346 348 346 346 346 344 345 345 344
342 337 338 341 343 344 345 348 348 347 346 345 345 346 346 345 346 345 345 346 346 346 345 345 345 346 345 345 344 344 343 343 343 344 343 343 343 343 343 343 343 344 344 344 344 344 344 344 344 345 345 346 348 348 349 350 350 350 351 350 352 351 350 350 346 346 343 343 342 345 343 343 343 345 349 348 348 346 345 346 345 344 345 345 344
340 340 338 340 343 343 346 347 345 345 343 343 343 344 344 345 345 344 345 346 346 346 345 345 345 346 345 345 345 344 344 343 343 344 343 343 342 343 343 343 344 344 343 343 344 344 344 344 344 344 345 346 347 347 348 349 350 349 350 351 350 351 349 349 344 345 344 342 343 344 344 345 346 347 348 348 345 344 343 343 344 344 345 345 344
339 339 338 340 340 342 344 347 346 345 343 343 342 342 342 343 343 343 343 344 346 345 345 345 344 344 344 345 344 344 344 344 344 344 343 342 342 342 342 344 344 343 343 343 343 343 343 344 344 344 344 345 346 346 347 348 349 349 350 349 350 350 348 348 345 344 342 344 343 344 345 346 348 348 345 342 342 343 342 341 344 344 345 344 344
337 338 342 342 341 341 341 342 345 345 346 347 344 340 340 341 341 342 340 342 343 345 345 346 345 345 343 344 345 345 345 345 345 344 343 343 343 342 342 342 344 344 343 343 343 344 344 344 343 344 344 344 345 346 347 347 347 348 349 350 349 349 349 348 346 344 343 342 345 343 345 345 346 346 344 342 343 343 342 340 343 344 344 343 343
336 337 339 341 341 339 339 340 343 346 345 344 346 344 340 340 342 341 340 341 342 342 345 346 347 346 345 344 343 346 345 345 345 345 344 344 345 344 343 343 342 344 344 343 343 343 344 345 344 344 344 345 346 346 347 348 347 346 347 350 350 350 349 351 344 346 344 343 346 345 346 348 347 345 343 344 345 344 344 343 344 344 344 343 343
336 336 337 337 338 339 341 342 343 344 344 346 346 342 340 341 341 343 343 340 339 342 343 344 345 345 346 346 343 344 342 343 344 340 343 344 344 344 344 344 343 343 343 344 344 344 345 345 345 344 344 345 345 346 346 347 348 348 347 347 348 349 347 348 342 345 344 346 347 345 347 347 348 345 343 344 345 345 344 345 344 344 344 344 343
330 332 337 337 337 338 336 340 341 342 344 338 340 342 344 343 344 344 344 345 345 344 346 344 340 343 342 348 344 344 345 344 342 343 345 344 345 345 344 344 344 343 342 344 345 344 344 345 345 345 346 345 345 343 344 345 348 349 347 348 347 344 345 348 345 343 344 344 348 346 345 346 348 346 344 344 345 345 345 345 345 344 344 344 343
327 329 331 335 334 334 337 338 340 341 343 340 338 341 343 342 340 341 346 343 339 341 344 342 341 338 340 340 351 350 342 343 343 343 343 344 343 346 346 346 345 344 343 344 344 344 345 345 345 346 346 346 344 343 342 346 346 347 349 347 344 341 348 348 346 344 342 345 346 347 347 346 348 346 345 344 345 344 344 345 345 344 344 344 343
327 327 329 333 334 333 336 338 338 340 339 339 336 339 340 338 334 337 342 343 342 337 345 346 341 341 340 342 342 339 339 351 342 344 345 345 344 344 346 345 346 345 345 344 344 344 345 345 345 345 344 344 342 342 342 345 346 346 346 345 343 349 347 345 345 344 342 347 344 349 347 347 347 346 346 345 345 345 345 345 345 344 344 344 343
327 328 328 331 334 338 337 335 336 339 338 336 338 336 339 336 334 332 334 334 341 340 339 339 340 340 339 340 337 339 338 339 343 343 341 341 341 343 345 344 345 342 343 343 345 345 344 344 345 346 345 342 344 343 343 343 343 341 342 344 343 348 343 346 346 346 344 345 346 350 350 348 347 346 346 345 345 344 345 344 345 345 344 344 343
329 325 327 329 329 330 337 338 338 338 339 335 334 335 336 333 335 334 332 332 333 335 336 338 337 342 339 335 338 339 339 337 339 341 338 346 342 344 342 346 342 341 344 344 343 342 342 340 341 340 344 344 343 343 342 342 341 341 341 342 343 346 342 345 345 346 343 345 347 350 348 348 347 348 346 347 346 345 345 344 344 344 344 344 343
325 326 329 330 332 335 333 336 338 340 339 337 336 332 331 332 331 331 328 329 331 332 328 335 336 340 337 337 335 333 334 337 336 336 336 338 341 343 342 343 341 342 343 340 341 340 340 341 339 339 340 340 341 343 343 342 341 341 342 338 338 342 340 341 342 346 344 345 346 348 348 348 348 347 346 346 346 346 345 344 344 344 345 344 344
327 329 328 330 333 333 336 337 337 337 337 336 334 330 332 331 331 331 329 330 328 329 331 333 336 336 335 332 335 333 331 331 334 334 333 336 337 341 340 341 343 340 339 340 338 339 339 340 337 339 338 338 339 340 341 340 340 339 338 336 335 337 337 340 342 343 344 343 344 346 349 348 348 347 346 345 346 346 345 346 342 343 342 344 344
327 328 327 329 332 334 335 334 335 333 334 333 329 328 332 335 332 330 331 330 329 330 332 332 331 334 333 330 332 333 331 329 331 330 331 331 335 339 340 342 341 340 337 335 340 337 338 339 340 339 339 339 340 339 339 339 339 341 340 338 337 339 335 337 338 340 342 345 344 344 349 348 348 348 347 346 346 345 345 343 344 343 342 344 344
328 329 328 329 330 331 331 333 335 333 337 336 336 334 334 333 333 332 332 333 330 329 331 329 329 331 330 331 331 331 332 330 331 330 329 331 331 333 339 342 342 342 338 335 336 341 339 341 340 339 339 339 339 338 338 338 340 340 339 337 338 340 339 336 337 339 340 346 346 344 349 348 348 347 347 346 345 346 345 344 343 342 341 343 343
327 325 326 327 333 330 332 333 334 334 336 334 335 334 336 334 333 334 333 332 333 331 331 332 327 332 329 330 331 329 331 330 330 329 330 329 328 329 335 341 341 341 344 341 340 340 340 339 342 341 340 340 339 339 337 336 337 337 339 338 339 339 339 338 340 340 337 340 342 344 347 347 347 347 347 346 345 346 346 345 344 342 342 344 345
326 329 327 329 331 334 335 335 337 337 337 335 336 335 334 332 333 332 332 334 333 332 329 330 333 334 332 331 331 330 331 329 332 330 329 328 328 328 329 335 337 338 343 343 341 342 337 337 337 342 343 340 339 339 339 337 338 337 337 337 338 339 335 340 340 341 340 340 339 339 344 345 347 347 347 346 346 345 345 346 345 343 342 344 344
329 330 328 332 332 334 335 335 336 336 335 334 336 334 334 333 332 331 330 333 332 333 330 329 334 333 331 329 328 327 330 329 331 331 329 326 328 330 329 332 334 335 337 342 342 341 339 338 340 338 341 340 338 337 339 339 337 336 339 338 339 338 340 340 340 342 342 341 340 339 341 343 344 346 347 346 346 345 345 344 345 345 344 343 343
326 329 332 331 333 333 333 334 336 334 334 336 335 333 334 333 331 331 331 330 336 335 334 333 332 331 327 330 328 327 327 328 328 330 330 328 328 329 330 334 333 335 337 343 340 342 335 338 339 337 338 340 336 338 340 338 340 337 338 339 339 339 339 339 340 337 342 341 339 340 341 340 340 341 344 344 345 345 344 344 344 344 341 343 343
329 331 331 332 332 334 334 332 334 334 335 333 334 333 334 334 331 332 333 330 329 331 332 331 331 329 327 327 328 328 327 327 327 329 330 329 328 331 332 332 333 335 335 339 344 339 338 336 339 336 337 338 339 339 339 339 338 338 339 340 340 340 339 340 339 339 339 341 339 339 340 340 340 340 339 342 343 345 345 344 344 343 342 343 343
331 331 332 333 332 332 335 331 333 332 335 336 334 334 336 334 338 333 330 338 332 329 332 330 327 328 326 329 328 328 328 328 328 328 330 328 328 329 331 332 332 334 334 335 335 333 338 338 338 337 334 334 335 335 337 338 337 337 339 341 340 339 339 339 339 339 339 341 340 339 340 340 339 338 340 341 342 343 343 343 343 343 343 342 343
332 330 330 332 330 332 336 332 332 333 331 333 335 333 340 335 336 338 335 337 332 328 328 331 326 326 326 325 329 330 328 328 328 328 330 328 329 330 331 332 332 332 332 332 332 335 334 334 337 339 337 335 334 333 333 337 338 340 339 338 340 337 336 336 335 338 341 339 339 340 338 339 340 342 340 338 340 341 343 343 343 343 342 341 341
333 333 331 332 331 331 332 333 333 334 339 340 337 338 337 335 336 333 335 334 333 331 332 328 328 327 329 327 328 331 332 328 330 330 330 330 333 331 332 332 332 332 334 332 331 332 333 332 331 334 336 335 333 334 334 335 336 338 338 338 337 337 335 336 337 338 340 339 338 338 338 339 338 339 340 340 339 339 341 342 343 343 341 340 337
332 333 332 333 332 332 334 333 333 335 336 336 335 334 337 334 337 336 332 332 334 334 336 327 330 324 326 325 330 328 332 329 329 330 330 329 330 330 332 333 332 334 333 330 329 330 331 331 331 331 334 333 333 336 336 336 336 336 336 337 337 339 338 337 335 338 339 339 339 338 339 337 338 338 339 339 338 338 340 340 338 339 340 340 337
333 334 333 332 332 332 332 333 333 336 335 335 334 332 332 330 331 333 332 333 332 331 331 331 326 325 326 325 328 328 330 329 328 331 331 332 330 329 330 330 329 332 330 328 328 328 329 329 330 330 330 332 333 338 336 333 334 335 337 333 338 340 333 334 336 333 335 338 338 339 337 337 337 336 338 337 338 339 339 338 338 337 339 339 337
332 333 332 331 331 331 331 330 334 337 333 332 332 331 330 329 331 330 328 329 329 331 333 328 326 332 326 326 328 332 329 330 330 329 331 330 330 331 331 330 329 329 329 329 330 329 331 330 330 331 330 328 329 336 338 335 331 330 337 333 334 337 331 333 332 333 335 339 339 338 337 336 336 336 338 339 339 338 337 336 336 336 338 338 339
331 332 332 332 331 331 330 332 333 333 335 334 334 333 332 331 329 332 329 330 329 326 328 329 333 331 332 327 326 333 330 328 330 333 333 330 330 330 330 330 331 329 330 329 329 332 331 328 328 327 329 327 327 332 334 331 328 326 324 326 329 329 329 328 331 335 336 338 338 338 337 335 335 337 338 338 338 337 336 337 337 337 337 337 337
332 331 333 333 333 330 332 332 333 333 334 333 332 330 333 334 332 332 330 330 337 335 329 332 336 332 330 330 325 329 331 329 326 330 330 330 331 331 329 330 330 330 330 329 327 327 327 328 327 325 324 327 328 331 333 333 325 326 327 326 323 324 325 329 331 330 332 337 337 337 335 335 336 338 338 337 338 338 336 335 337 337 337 336 337
333 332 332 331 331 331 330 331 333 333 333 334 333 333 334 336 334 334 334 332 330 331 335 332 336 331 327 329 325 323 329 328 325 324 327 331 331 328 329 328 330 330 329 327 326 323 324 325 325 325 325 321 323 325 330 333 331 326 320 321 322 323 318 321 325 329 334 333 334 334 336 336 336 337 336 335 337 337 336 336 338 338 337 334 335
332 332 332 331 331 330 331 331 334 334 332 331 332 331 333 332 334 333 334 333 333 330 331 329 329 327 330 330 326 325 326 326 327 326 324 326 329 329 329 328 328 329 327 325 324 323 323 323 324 324 323 322 321 323 327 331 330 330 325 321 320 319 318 321 323 325 329 330 333 332 335 335 334 334 334 334 336 336 336 336 338 338 337 335 336
332 334 334 334 333 332 332 333 336 334 331 332 332 330 328 331 331 326 327 327 327 329 326 327 328 330 329 330 330 326 324 328 327 326 325 327 330 329 329 327 328 329 328 325 323 324 322 323 323 324 324 325 323 322 322 327 329 332 331 329 326 319 319 323 323 316 329 332 331 332 332 332 334 334 333 334 334 335 337 335 336 337 339 337 338
332 334 334 334 334 333 333 332 334 334 333 333 334 334 331 331 330 329 328 328 326 328 335 335 333 332 331 332 331 330 325 327 330 328 327 327 328 329 329 328 328 327 329 327 324 323 321 322 325 324 325 326 325 321 321 321 325 328 328 329 330 328 328 321 318 321 317 325 331 331 330 332 333 333 333 334 335 335 336 336 335 335 337 337 335
332 332 335 335 334 333 333 333 334 334 333 334 334 334 333 333 330 328 330 329 329 328 331 333 332 336 334 332 331 330 329 328 328 327 327 326 328 328 327 328 328 326 326 326 324 323 324 323 326 327 327 327 325 322 321 322 320 322 325 326 327 329 329 329 326 321 318 317 321 326 328 329 331 333 333 334 335 335 335 336 336 335 335 337 338
335 334 332 335 337 337 335 335 334 335 335 335 335 335 333 335 332 330 330 331 330 331 330 330 334 335 329 331 333 329 330 330 330 330 332 328 329 328 328 327 327 326 325 324 325 323 323 323 323 324 325 325 325 326 323 321 322 321 321 322 323 324 326 329 327 325 320 318 318 320 322 329 328 331 334 334 335 336 335 334 336 336 337 337 338
336 333 333 334 334 335 334 334 334 335 335 335 335 334 335 334 334 333 330 330 330 331 334 331 333 332 331 331 330 331 334 328 329 332 330 328 331 329 329 327 327 326 327 325 325 324 324 323 323 323 325 324 326 325 323 322 323 324 322 322 320 320 321 322 325 324 323 322 317 319 322 321 319 326 333 333 334 335 336 336 334 335 335 336 339
337 335 335 331 334 334 333 333 334 334 335 335 336 334 335 336 333 331 331 330 329 331 330 331 333 329 330 330 329 332 336 329 327 330 328 325 330 330 329 326 327 328 327 325 324 323 324 323 323 324 324 322 322 323 322 322 323 322 321 322 320 319 318 319 320 321 321 320 319 320 321 323 323 323 329 334 335 336 336 337 334 334 335 336 339
Wind_Speed
9 10 12 12 10 9 8 11 12 12 12 12 13 12 13 13 13 13 13 12 11 12 12 11 11 11 10 11 11 11 11 10 10 9 9 7 6 4 4 4 5 5 4 2 2 3 4 6 5 5 6 9 9 7 6 7 7 7 8 9 10 12 14 13 11 13 11 11 13 10 12 13 14 9 9 13 13 14 14 15 13 10 8 10 15
5 5 6 5 7 8 10 12 13 13 13 13 12 12 12 12 12 12 12 11 12 12 11 11 11 10 11 10 10 10 10 9 8 7 7 7 7 5 5 5 4 4 3 2 3 3 4 3 5 5 6 9 9 8 5 6 8 10 9 8 11 13 15 16 16 11 10 11 12 10 11 11 11 12 12 13 12 12 12 13 15 8 5 12 14
9 7 4 7 11 13 11 9 13 12 13 12 11 11 11 11 11 11 11 11 12 12 12 12 11 10 10 10 10 9 9 8 8 7 6 6 6 5 4 3 3 3 1 2 1 3 2 3 4 4 7 8 9 8 7 7 7 8 8 9 12 15 15 14 13 11 10 10 8 8 9 5 6 9 12 12 12 9 12 15 15 13 8 14 13
9 6 6 9 11 12 12 12 12 12 12 11 11 11 11 11 11 11 11 11 12 12 12 11 11 11 10 10 9 9 8 8 7 6 5 5 4 4 3 1 1 1 1 2 3 2 2 3 3 5 6 7 7 8 8 8 7 8 10 9 10 14 14 12 12 11 11 11 8 6 1 2 2 7 8 9 11 14 15 16 15 14 14 13 14
7 4 7 6 6 7 8 8 10 10 11 11 10 10 10 10 10 11 11 11 11 11 11 11 11 11 10 10 9 8 7 7 6 5 5 4 3 2 1 0 0 1 1 1 2 2 3 3 5 5 5 6 6 7 6 7 8 10 9 8 6 10 12 13 12 9 11 11 9 6 2 4 3 6 7 10 13 15 16 16 15 14 14 14 14
6 5 5 5 4 4 5 5 7 10 10 10 10 9 9 9 9 10 10 10 10 10 10 10 10 10 10 9 9 8 7 6 5 4 5 4 2 1 1 2 1 1 1 2 1 3 4 6 4 3 5 7 6 5 6 7 10 10 10 8 5 9 11 13 11 8 8 11 9 4 3 3 5 3 8 10 13 14 15 16 15 14 14 14 13
7 6 2 3 4 4 4 5 7 11 11 10 9 9 8 8 9 9 10 9 10 10 10 10 9 9 9 9 9 8 7 5 4 4 4 3 3 2 1 1 2 1 1 2 2 4 6 6 5 4 6 7 6 5 5 7 9 10 11 10 5 4 8 11 9 6 8 5 4 3 2 3 4 2 7 10 12 14 15 15 14 14 14 13 13
6 4 4 4 3 4 2 4 10 10 9 9 8 8 8 8 8 9 9 9 9 9 9 8 8 8 8 8 8 7 6 5 4 3 3 3 4 3 2 2 2 2 2 2 1 3 5 6 5 5 6 5 6 5 4 6 7 7 8 8 6 5 6 9 8 7 7 3 3 4 3 4 8 7 3 10 12 13 14 14 13 14 13 13 13
4 3 5 3 5 9 9 9 9 9 9 8 8 8 8 7 8 8 8 8 8 8 8 8 8 8 8 7 7 6 6 5 3 2 2 3 3 3 2 2 3 2 3 3 2 1 3 5 4 4 4 5 5 4 3 5 7 7 5 5 5 6 6 6 5 8 5 3 4 5 5 5 4 3 6 11 12 13 14 13 12 12 13 13 12
3 1 2 4 6 10 9 9 9 8 8 8 7 7 7 8 7 8 8 7 8 7 7 7 7 8 7 7 5 5 5 5 3 2 2 1 2 3 3 3 4 4 3 2 2 1 2 4 3 3 4 4 4 3 3 4 5 6 5 4 3 4 5 4 2 5 5 5 4 4 2 1 1 4 7 12 12 13 13 13 9 8 9 12 12
7 3 6 8 8 9 9 8 8 8 8 7 7 7 7 7 7 7 7 7 7 6 6 7 7 6 6 5 4 5 5 5 4 3 1 1 1 2 3 3 3 4 4 4 4 2 1 2 3 3 3 4 4 3 3 4 4 4 4 3 2 4 5 4 4 4 5 5 5 3 3 4 1 3 8 12 13 13 10 11 12 9 11 14 14
10 8 7 7 9 9 9 8 8 7 7 7 6 6 6 6 7 7 7 6 6 5 6 6 6 6 5 5 4 4 4 4 4 2 1 1 2 3 3 3 4 4 5 5 5 4 3 1 2 0 1 2 2 1 2 2 2 1 2 1 1 2 3 2 2 4 3 5 4 2 3 1 3 5 11 12 13 12 12 12 11 10 12 13 13
8 8 8 7 7 8 8 7 7 7 6 6 6 5 5 5 6 6 6 6 5 4 5 5 6 5 5 4 4 4 3 3 3 2 1 1 3 3 3 4 4 4 4 4 5 5 5 3 3 3 2 4 4 4 3 4 4 2 1 4 5 3 2 1 1 4 4 6 4 3 5 2 3 10 13 12 13 9 12 13 14 13 13 13 14
8 8 7 7 6 10 9 8 7 6 6 6 5 5 5 4 5 4 4 4 4 4 4 5 5 4 4 4 4 3 4 3 3 2 1 1 1 1 2 4 4 4 4 5 5 6 5 3 3 3 3 4 5 5 6 4 3 4 3 3 4 5 4 3 4 4 6 7 5 5 7 4 4 13 12 13 13 13 12 13 14 14 14 14 14
9 9 9 8 7 7 11 9 9 9 8 6 6 5 4 4 3 3 4 4 3 4 4 4 4 3 3 3 3 3 2 2 2 2 2 2 2 1 3 4 5 5 6 5 6 5 4 4 3 4 4 5 5 6 5 4 4 5 5 5 4 2 2 1 4 4 6 6 3 3 2 3 8 9 13 13 13 12 12 13 12 13 15 15 15
6 7 7 6 8 8 7 9 10 10 9 9 7 6 4 4 3 3 4 3 3 2 3 4 3 3 3 3 2 2 2 2 3 2 1 1 1 2 3 3 4 6 6 5 6 6 5 5 6 4 5 6 6 6 6 5 5 5 5 5 5 3 1 2 4 3 5 5 5 5 5 6 11 12 12 14 14 13 12 14 13 14 16 15 15
5 6 6 6 6 5 7 7 8 10 10 10 8 7 5 4 4 3 4 3 3 3 3 3 4 3 3 1 1 0 1 2 2 2 0 0 1 2 3 3 2 3 5 5 5 5 5 5 6 5 6 7 7 6 5 5 6 5 5 5 4 2 1 3 5 2 5 5 5 3 4 6 16 15 14 13 12 12 11 12 13 15 16 15 16
6 5 6 5 5 4 4 6 8 7 6 8 9 7 4 3 3 3 2 3 3 3 3 3 3 3 2 1 1 2 2 1 2 3 4 3 2 3 3 4 4 4 4 5 5 5 5 5 6 6 6 7 7 6 5 4 5 5 5 5 4 3 2 2 6 3 5 6 6 6 4 8 16 14 13 8 10 11 12 10 13 16 15 15 15
6 5 4 4 4 5 4 4 3 3 2 2 4 5 3 1 1 3 1 1 2 3 3 3 3 4 3 3 3 2 3 2 3 4 6 5 4 4 3 4 5 4 5 5 5 5 4 4 4 5 5 6 7 7 5 5 4 4 5 5 5 4 3 2 2 3 4 4 5 6 5 12 14 14 16 12 13 14 13 13 14 15 15 15 15
6 6 5 4 4 5 5 3 2 2 2 2 2 2 5 5 5 3 2 1 3 5 5 6 5 6 6 5 3 2 2 3 4 5 5 4 4 4 5 4 3 5 5 5 5 6 6 5 4 4 5 6 6 7 6 6 5 4 5 5 4 4 3 0 2 1 2 3 4 2 6 15 14 16 13 16 16 15 14 13 14 15 15 15 14
4 5 5 5 5 5 4 3 2 2 2 1 1 1 1 8 6 6 6 2 2 4 6 7 9 8 7 5 6 6 2 3 2 4 1 2 4 4 6 6 5 4 5 4 4 5 6 6 5 4 4 6 7 8 8 8 7 5 5 5 5 3 4 3 2 2 1 2 3 1 9 16 15 18 16 16 16 15 15 16 14 15 15 15 15
7 5 4 5 4 4 4 4 2 1 2 1 1 1 2 6 5 7 6 5 7 6 3 2 7 3 4 1 2 2 1 4 1 5 4 3 6 7 7 5 5 5 4 5 5 5 5 6 6 5 5 5 7 4 4 6 8 8 6 6 3 4 3 0 3 3 3 2 3 4 9 13 15 18 15 15 16 16 15 15 16 16 15 15 15
6 6 4 5 4 4 4 4 3 3 2 3 3 3 3 3 4 3 2 1 4 3 2 3 3 4 4 4 2 3 5 6 3 6 1 6 1 6 6 4 5 6 7 6 6 5 5 6 6 6 6 6 4 3 3 2 1 5 7 4 3 5 2 1 1 3 2 2 2 7 13 13 14 17 15 15 15 14 14 17 17 16 16 15 15
6 6 6 4 4 4 4 4 4 4 3 2 3 3 3 5 5 5 3 2 3 5 2 2 3 4 5 4 5 6 4 2 2 6 5 2 2 2 5 4 5 6 7 5 5 5 6 7 7 5 4 3 3 3 1 2 2 2 2 3 4 1 1 1 2 2 2 2 3 12 14 14 13 16 16 15 15 15 15 17 17 17 16 16 15
5 6 5 4 5 3 3 4 4 4 3 3 3 3 4 3 4 4 4 5 3 3 3 4 4 4 4 5 6 5 5 4 1 2 2 2 1 1 1 2 1 5 8 3 2 1 0 2 1 3 0 3 2 3 2 2 2 3 4 4 4 2 1 2 1 3 2 3 4 14 14 14 13 13 16 15 15 16 17 17 17 17 17 16 16
5 6 6 5 6 5 3 3 3 4 4 3 4 4 4 4 3 4 4 4 5 4 4 3 3 2 4 5 5 4 3 4 4 3 4 1 1 1 1 1 2 1 4 3 2 2 1 1 2 2 1 1 1 1 2 2 3 3 4 5 6 2 2 2 2 2 1 1 2 15 14 13 13 12 15 16 15 16 17 17 16 17 17 17 17
5 5 4 4 4 4 4 4 3 2 3 4 3 4 4 4 4 4 4 4 4 4 6 4 3 3 5 5 6 6 5 3 3 5 4 3 1 2 1 1 0 2 3 3 1 1 2 1 1 2 1 2 1 1 1 2 3 4 3 5 8 2 1 4 3 0 2 3 4 14 13 13 12 12 12 15 17 16 17 17 16 18 17 17 17
5 6 5 4 3 4 3 3 3 3 3 3 4 3 3 3 3 4 5 6 6 4 3 4 4 4 6 6 6 5 6 6 4 4 5 3 3 3 4 0 2 1 2 4 3 3 3 1 2 2 1 2 1 1 1 2 3 4 5 7 10 5 2 6 2 0 4 2 4 10 13 14 12 11 12 14 16 17 16 14 15 16 17 17 18
5 5 4 4 3 3 4 4 3 4 3 4 4 3 3 2 3 4 4 6 4 4 4 4 5 4 7 6 6 6 5 5 6 7 6 7 5 2 3 0 2 0 4 4 4 5 3 2 2 2 1 0 1 1 2 2 0 1 3 5 9 3 6 6 1 2 3 2 3 7 15 14 13 12 12 13 14 15 15 15 17 17 17 17 18
4 4 4 4 4 4 5 4 3 3 3 2 2 3 3 3 3 4 4 3 4 5 5 5 6 5 5 5 6 6 5 5 5 5 6 6 7 7 2 1 1 2 7 5 4 5 4 3 2 2 1 0 0 0 0 1 1 0 1 4 9 7 6 6 6 2 3 4 3 4 14 14 13 12 12 12 14 15 16 17 16 15 17 16 17
5 6 4 4 3 4 4 4 4 3 3 3 2 2 2 2 3 3 3 3 3 4 4 4 5 4 4 5 5 6 5 4 4 5 5 5 6 8 4 1 2 1 1 2 6 3 2 5 3 1 0 0 1 0 1 3 4 4 3 6 7 4 9 9 3 4 5 8 8 1 7 13 12 12 12 13 13 15 16 16 17 16 17 17 16
4 3 5 4 4 3 3 3 3 3 3 3 2 2 2 3 3 3 3 3 4 3 4 4 3 3 3 4 4 4 5 5 4 4 4 5 5 6 7 3 3 3 2 2 2 1 6 3 6 4 1 1 0 1 0 2 2 3 5 6 6 3 5 4 2 2 4 3 0 8 3 6 11 12 12 12 11 14 15 16 17 17 18 16 17
3 5 5 4 3 3 3 3 3 2 2 3 3 3 3 3 3 4 4 5 3 3 3 4 2 2 4 5 5 6 6 4 5 4 5 5 5 5 5 5 4 5 4 3 3 3 4 4 4 5 3 1 1 2 3 1 3 5 4 2 3 3 1 4 3 3 1 2 5 4 4 2 3 10 11 11 11 11 14 15 16 16 16 17 17
3 4 4 5 3 2 2 2 2 3 3 2 3 3 4 4 4 4 4 7 3 3 3 3 4 3 4 5 6 6 6 6 5 3 4 4 5 5 4 3 5 5 4 2 2 2 2 3 3 4 3 2 3 3 3 3 1 1 1 1 1 1 1 2 3 3 0 2 3 3 2 1 3 4 5 11 11 10 13 14 16 17 16 18 18
3 3 4 4 3 2 2 2 2 2 2 2 3 3 4 3 4 3 3 4 5 4 4 4 3 4 4 5 5 5 5 6 6 4 4 4 5 4 3 4 4 4 4 3 2 3 1 3 4 4 2 1 1 1 2 1 1 2 2 2 2 1 1 1 3 4 1 2 3 4 4 4 4 4 5 3 7 10 11 14 16 16 17 18 18
4 2 3 3 3 3 2 3 2 2 2 2 3 3 2 3 2 4 4 1 3 5 4 4 5 4 5 4 6 5 5 6 6 4 5 5 5 4 4 5 6 3 5 5 5 4 2 2 2 3 4 4 4 3 3 3 3 3 2 2 2 1 0 2 1 3 4 3 4 3 2 3 5 4 2 3 2 4 10 13 13 16 15 17 17
7 5 1 2 2 3 1 3 2 2 2 2 1 2 2 2 2 2 1 2 3 4 4 4 5 5 5 4 5 3 4 4 5 5 5 5 4 5 4 5 5 4 5 6 5 3 3 3 2 2 2 3 4 5 4 5 2 1 1 1 3 4 3 2 1 4 3 5 5 4 4 4 5 8 5 1 3 0 8 13 14 15 14 15 12
3 6 5 3 2 3 2 2 2 1 1 1 1 1 1 2 2 4 5 3 3 3 3 4 3 4 3 4 3 3 2 4 3 3 4 5 2 3 3 4 5 4 3 4 5 4 4 5 5 3 3 3 4 3 3 0 4 1 2 3 3 3 2 3 4 6 4 4 4 5 5 3 4 6 6 5 2 2 2 9 16 16 16 14 13
3 4 3 2 0 1 2 2 2 2 1 1 1 2 2 3 2 2 3 4 2 3 2 4 3 6 4 5 2 4 2 4 5 3 4 4 4 4 3 3 3 3 3 4 6 6 4 4 5 5 4 4 4 2 2 2 3 3 3 4 3 4 3 1 3 4 1 0 1 1 2 2 2 5 6 5 5 3 2 1 2 6 8 17 16
4 3 5 0 3 2 3 3 2 1 1 2 1 2 3 3 4 3 2 2 3 1 3 2 4 4 4 4 2 3 3 4 4 3 4 4 5 6 5 4 4 3 5 6 5 5 5 5 4 4 5 4 4 1 2 5 4 4 1 5 4 2 4 1 2 4 3 1 1 1 2 2 1 2 4 6 4 3 4 2 2 5 6 11 18
5 6 6 4 3 3 3 3 1 2 2 2 2 2 2 4 3 4 5 4 4 4 2 5 4 2 4 4 3 2 3 3 3 4 4 5 4 5 5 4 5 6 5 4 4 6 4 6 5 3 4 4 4 2 2 4 5 3 1 5 5 4 9 3 3 2 2 1 0 1 0 2 1 1 0 3 5 3 4 5 5 6 7 5 10
6 6 7 7 5 5 4 2 2 1 2 1 2 1 1 2 2 2 3 2 3 4 3 3 1 2 2 4 6 2 2 3 3 2 2 3 3 4 5 4 4 4 4 4 4 7 4 5 6 5 4 5 4 5 4 4 3 4 5 4 2 7 6 3 3 1 1 1 1 1 1 1 1 1 1 2 4 5 4 5 5 5 5 5 5
6 6 6 7 7 6 4 2 3 2 1 2 1 1 2 3 3 3 4 3 0 1 3 3 2 3 3 3 5 4 2 2 5 3 2 3 2 4 4 5 3 4 4 4 5 6 6 5 7 6 6 5 5 4 4 4 3 6 6 3 2 1 2 2 2 5 3 0 0 0 0 1 3 4 2 2 3 3 5 4 6 6 6 5 6
5 6 6 6 5 5 5 5 4 3 2 1 2 3 1 2 4 3 3 4 3 2 2 3 1 2 5 3 4 6 2 2 5 7 3 2 3 5 4 5 4 4 5 4 4 6 6 5 5 6 7 7 6 6 5 4 3 5 5 3 4 2 1 5 2 0 3 1 1 1 1 2 2 3 3 3 3 4 3 4 6 7 5 3 3
5 7 6 6 5 6 5 5 5 5 4 2 2 2 2 3 4 2 3 3 2 4 2 3 4 4 1 2 4 4 3 4 3 5 5 4 4 4 4 4 5 4 5 5 4 6 6 6 8 7 8 7 7 5 4 5 6 6 4 4 3 2 2 0 3 1 3 3 0 0 1 1 2 1 2 2 3 3 5 5 3 3 5 6 7
5 5 6 6 6 5 5 5 5 4 4 4 3 2 2 3 1 2 3 3 3 2 2 1 2 2 1 2 2 3 5 3 3 3 5 4 3 3 4 4 4 4 4 6 5 5 7 6 7 6 7 7 6 6 7 6 5 1 4 4 2 3 4 3 2 2 1 2 2 1 0 0 2 2 2 3 3 3 3 4 3 2 1 4 6
6 6 7 7 7 5 5 6 5 5 5 5 5 5 5 5 5 5 4 3 3 2 0 1 2 2 2 2 2 2 3 3 2 3 3 4 4 3 3 3 3 4 3 4 5 6 6 6 6 6 6 6 6 5 6 6 6 4 5 4 2 2 2 5 2 3 1 1 1 1 2 1 1 2 0 0 1 1 2 2 2 2 2 4 5
5 5 5 5 6 7 6 5 4 5 5 4 6 5 4 4 5 4 3 4 4 3 2 1 3 1 2 0 2 2 2 3 3 4 3 4 4 5 5 4 4 4 5 4 4 5 5 6 5 5 5 5 5 5 5 5 6 6 7 5 5 3 1 1 1 1 2 3 2 1 1 2 2 2 2 1 2 3 2 1 4 3 4 3 3
3 3 5 5 4 4 5 5 5 5 5 5 5 6 8 6 5 4 4 1 4 3 2 2 2 1 1 2 1 2 2 2 2 2 2 2 3 3 3 4 4 4 5 5 4 5 5 5 6 6 4 5 4 4 4 5 5 5 7 7 6 5 3 0 2 2 2 3 2 1 3 1 1 4 3 2 2 3 4 3 2 3 3 3 4
3 4 3 7 6 5 5 7 7 5 5 6 7 8 7 6 5 4 5 4 5 3 1 3 2 2 1 2 2 1 1 3 2 2 2 2 1 2 2 3 4 5 4 4 4 5 4 4 5 5 5 4 3 4 4 5 5 4 4 5 6 7 5 4 1 4 2 2 3 4 3 3 3 1 3 3 3 2 3 4 5 5 5 5 5
2 2 3 5 8 6 7 8 8 6 6 7 8 7 6 6 5 7 6 5 6 2 2 2 2 2 1 1 3 1 0 2 3 1 3 3 1 0 2 3 3 3 4 4 4 4 4 5 5 6 5 7 6 6 6 5 5 5 6 5 6 6 6 6 5 3 3 4 5 4 4 3 2 4 1 3 4 4 5 5 6 7 6 6 6
Wind_Direction
52 53 52 43 49 69 74 77 71 66 62 58 56 54 53 54 52 52 53 54 55 57 55 54 52 49 48 49 50 50 52 54 55 55 58 56 59 54 47 26 30 48 63 65 69 66 76 84 105 91 95 85 83 81 84 105 96 90 78 73 73 76 101 96 78 59 68 87 98 123 118 120 142 165 131 109 107 103 104 102 96 96 98 102 101
76 58 74 66 63 60 45 54 65 63 59 57 55 55 56 54 54 53 51 50 50 52 53 54 53 50 50 49 52 54 57 56 62 62 61 58 53 41 36 31 23 28 40 48 75 76 92 113 116 128 108 100 95 95 94 105 108 96 79 74 63 63 79 81 85 95 106 114 120 130 137 150 159 144 116 107 112 116 111 110 101 96 95 105 103
86 82 82 70 58 49 36 38 61 58 58 55 54 53 54 52 51 51 51 48 48 50 51 50 48 48 50 50 49 51 51 56 57 57 55 51 48 56 53 50 18 23 46 65 76 106 120 129 95 118 118 105 112 114 114 109 106 103 89 73 75 83 78 82 97 94 101 100 90 73 88 79 115 109 118 120 117 109 100 100 102 104 110 107 104
52 36 43 48 50 42 41 44 59 61 60 58 54 53 50 50 49 48 48 49 50 48 48 49 48 47 47 48 54 56 54 55 53 51 46 51 57 66 78 342 48 71 77 93 93 131 162 142 121 125 117 112 117 120 125 119 105 95 81 79 96 100 101 104 108 113 109 100 77 60 15 120 120 110 112 116 106 104 105 104 107 112 111 108 108
64 52 54 52 44 46 37 42 60 65 67 64 61 56 54 53 52 52 50 48 47 48 45 45 48 45 48 52 52 52 54 58 51 44 46 54 58 71 85 351 6 94 100 110 119 141 152 153 149 136 121 119 127 117 118 124 115 101 88 81 94 101 97 105 110 115 110 89 68 49 50 359 331 103 103 101 101 104 105 108 111 111 112 112 111
64 62 76 98 90 76 51 27 52 69 69 65 61 58 58 57 57 55 55 53 49 47 47 48 47 46 45 45 54 55 58 60 50 46 45 41 80 76 70 287 313 314 52 74 97 127 145 157 148 139 137 132 129 137 144 142 124 117 109 101 108 102 99 106 115 136 105 78 74 66 35 358 334 106 109 111 112 111 111 114 115 115 115 114 114
96 87 109 101 95 83 75 34 58 66 65 63 60 59 58 58 55 55 55 51 49 46 43 45 46 47 45 48 51 55 59 66 65 58 51 37 49 40 21 346 338 346 3 45 83 123 147 153 152 140 136 141 140 140 143 140 135 134 127 129 136 101 106 113 121 134 96 88 78 82 76 3 346 334 119 120 118 118 117 117 119 119 120 120 114
106 110 75 55 75 104 95 85 78 75 69 66 61 60 58 54 54 58 54 51 50 47 42 40 44 45 48 52 56 59 60 62 70 66 68 30 25 9 9 357 343 343 332 356 84 140 154 151 155 144 142 144 138 149 147 141 130 120 123 139 132 115 107 121 137 141 111 69 84 68 52 10 22 348 141 125 125 124 124 122 124 127 128 121 117
31 62 94 114 103 105 96 85 81 74 70 64 64 62 60 60 59 54 53 50 49 46 41 40 40 42 47 49 52 58 59 60 67 67 60 38 6 353 340 341 348 350 345 350 7 121 169 158 154 145 140 136 133 134 131 116 102 105 109 105 111 106 94 90 127 154 107 72 51 48 44 25 53 272 179 138 136 131 128 126 127 127 125 126 123
122 236 186 90 81 81 80 81 78 76 74 72 67 61 63 59 58 56 52 51 46 43 40 38 38 39 45 54 54 54 52 56 57 49 54 28 1 355 359 334 342 355 7 350 348 35 171 173 165 164 154 138 123 113 85 67 79 83 80 76 78 89 80 67 91 121 101 99 86 67 80 255 1 287 181 147 144 139 134 132 129 137 132 128 124
166 167 106 99 98 90 87 83 83 82 76 72 65 62 55 56 53 50 49 48 46 38 35 38 37 38 45 58 62 57 61 57 64 63 30 281 321 350 2 345 333 343 352 352 1 358 294 180 175 189 147 141 130 111 73 55 49 71 82 69 35 42 56 44 285 92 90 108 101 127 166 222 162 266 195 158 149 141 134 126 128 129 129 124 128
121 115 108 104 102 100 98 95 89 86 82 75 67 59 59 52 49 48 45 43 41 34 31 34 37 38 40 62 60 51 61 64 67 72 129 261 290 320 349 347 333 336 341 354 359 3 348 303 192 254 90 42 50 61 38 21 2 64 112 94 24 34 37 22 284 111 116 76 78 116 123 185 206 232 191 163 153 144 140 137 127 128 133 131 133
118 119 117 119 109 112 103 97 89 83 87 83 77 74 68 59 51 46 40 40 34 31 28 31 33 34 36 52 72 66 59 69 75 120 156 248 311 331 322 334 328 325 337 350 4 4 359 341 333 314 323 329 338 337 348 337 336 339 250 206 210 178 183 318 24 70 71 70 55 91 107 208 228 217 180 164 139 147 143 141 141 149 143 139 138
123 115 116 116 128 124 121 113 107 105 93 92 91 85 73 68 62 47 42 36 36 28 23 28 27 31 39 45 64 70 65 66 86 106 116 87 341 308 306 313 326 324 341 341 350 12 8 354 326 296 293 315 332 331 338 337 334 327 312 275 218 199 182 198 97 78 69 68 57 89 142 186 203 192 167 161 151 157 144 142 146 151 145 141 140
132 128 125 126 135 140 136 137 131 125 120 108 98 83 76 75 67 54 41 36 31 23 16 13 20 32 42 50 63 82 81 83 87 103 84 55 13 23 336 328 317 332 332 339 338 354 3 349 327 318 315 325 331 337 334 343 343 347 340 332 325 285 186 92 89 76 85 92 86 127 156 192 201 174 167 156 158 152 150 152 155 161 145 143 139
143 125 127 129 136 144 140 145 139 135 128 118 99 89 87 79 68 52 42 38 29 11 1 6 4 23 48 42 72 80 91 105 81 79 65 26 333 340 6 347 329 328 328 327 326 328 347 345 337 332 329 326 331 347 351 345 354 351 348 347 350 6 157 346 65 50 93 116 139 151 170 205 189 183 167 159 159 153 160 159 167 163 146 142 141
100 113 122 135 143 134 146 152 149 136 130 119 106 97 90 76 62 45 32 27 21 6 354 355 359 350 24 35 10 213 138 143 152 112 169 226 263 299 332 334 299 302 311 317 321 317 319 335 338 331 326 325 324 332 351 359 3 357 353 349 355 15 99 77 38 267 124 127 136 151 213 195 174 171 163 153 144 157 171 171 171 156 146 144 145
122 113 107 117 121 112 96 135 155 155 134 120 109 103 89 99 102 61 28 18 5 343 342 336 326 328 308 298 255 271 217 199 166 161 182 201 221 245 278 313 323 311 313 326 317 310 312 318 327 328 329 319 313 318 334 347 354 346 344 345 335 344 348 124 189 192 122 130 131 155 199 196 166 162 127 124 164 169 170 184 175 154 148 148 149
103 98 102 93 110 108 94 69 70 50 88 102 134 117 110 111 143 129 75 339 324 306 297 301 289 277 281 259 254 217 235 231 200 195 182 181 191 213 237 298 321 317 314 303 314 319 310 305 314 316 320 317 312 308 324 330 332 332 326 324 329 330 326 247 152 148 124 107 135 169 202 187 165 154 127 168 170 169 178 180 180 153 150 150 150
109 104 83 68 38 78 92 72 73 74 106 103 89 99 155 192 213 174 168 216 291 301 295 284 280 284 283 292 282 268 337 293 234 208 196 194 192 208 193 244 285 302 300 305 304 314 316 311 312 321 315 314 311 307 306 310 309 303 309 302 306 320 282 212 111 124 94 128 142 185 190 172 164 135 142 177 179 170 178 187 169 155 153 151 151
111 108 107 79 67 43 57 118 104 121 129 147 160 134 220 185 203 200 174 193 289 283 290 283 268 264 274 294 358 321 237 261 320 294 255 257 198 158 185 201 237 266 288 291 291 291 298 316 314 310 305 294 299 302 289 286 284 273 272 279 282 265 249 164 172 103 162 158 144 170 189 171 161 139 164 176 174 170 180 179 168 159 157 156 154
120 104 90 101 96 80 62 35 37 77 88 312 102 104 319 171 186 187 186 210 215 230 246 340 21 353 300 270 184 216 18 296 193 255 205 211 199 208 198 214 208 221 236 254 266 268 282 291 300 298 293 290 293 298 283 256 254 259 255 263 269 241 242 248 156 134 168 160 132 176 179 174 164 142 166 179 176 177 181 173 171 162 160 160 158
114 105 90 90 88 70 52 49 28 342 60 41 31 15 0 3 29 15 66 11 6 19 92 18 37 3 343 348 253 189 170 166 240 293 210 207 264 203 216 228 224 216 216 232 249 261 263 279 287 293 303 301 288 256 267 307 312 259 251 253 247 247 136 130 21 127 197 149 140 169 180 179 166 152 167 177 177 179 183 176 171 166 164 164 162
93 96 95 78 82 81 66 56 16 351 30 55 50 6 11 33 11 360 355 20 36 339 41 58 60 13 352 359 343 347 349 95 105 300 331 301 79 235 260 262 262 247 243 240 240 252 280 277 266 284 300 264 238 238 289 43 354 336 279 241 252 28 186 135 207 157 171 167 157 173 175 177 174 162 168 175 181 179 188 184 175 170 166 168 166
117 110 101 97 78 76 90 64 42 354 15 37 50 37 11 37 36 351 0 4 352 11 24 1 54 13 13 11 356 342 351 351 90 276 153 259 86 351 337 284 340 8 286 260 246 246 244 320 276 224 270 299 332 342 4 359 355 325 308 284 263 122 321 248 188 179 156 180 186 177 178 180 176 171 168 176 182 181 194 192 177 172 170 169 170
91 91 89 78 73 71 63 95 73 29 9 48 44 31 29 21 26 12 14 1 338 8 10 32 18 3 41 9 345 330 1 346 360 343 330 98 117 73 304 73 318 240 270 307 355 348 343 302 331 337 3 348 329 347 334 336 339 297 280 285 260 157 171 292 241 179 134 190 184 177 182 179 176 182 172 178 184 187 194 190 183 176 173 170 174
101 97 93 90 80 71 67 41 50 80 44 38 66 52 27 25 10 14 19 349 359 10 9 353 344 13 47 12 5 342 353 12 2 342 336 359 74 103 358 242 175 260 304 325 345 262 259 277 303 299 294 279 279 349 341 321 329 305 285 285 288 99 119 251 247 292 213 178 168 184 183 184 181 184 183 184 186 189 195 187 188 181 178 174 176
110 111 102 97 92 82 70 68 53 41 31 41 46 62 49 33 19 19 13 14 16 360 353 331 349 21 41 21 360 356 352 351 351 347 339 346 353 96 196 286 169 268 23 357 327 294 252 203 207 205 273 285 297 60 351 358 333 337 334 325 316 334 224 249 121 216 250 191 184 191 191 186 184 186 193 188 189 192 193 191 189 190 186 179 176
87 88 102 96 91 83 74 74 69 56 41 42 42 36 37 34 44 26 9 20 8 343 343 357 7 353 49 23 359 352 0 348 348 355 356 347 338 355 324 130 93 90 71 304 294 278 281 251 209 190 164 310 333 1 18 14 206 284 13 322 273 192 232 269 299 228 244 267 199 196 191 188 184 187 192 190 191 196 191 195 191 189 195 184 179
111 127 109 99 97 86 83 69 55 46 48 66 71 59 30 22 22 53 4 18 5 4 11 2 6 11 24 30 3 353 359 335 7 352 345 346 332 330 294 8 56 207 159 173 250 275 300 281 292 325 350 81 153 157 202 240 212 107 343 270 269 266 161 206 263 125 280 256 236 187 198 190 187 188 191 194 191 194 193 193 193 197 198 192 186
150 126 115 117 112 93 91 81 68 69 50 49 33 33 57 43 24 36 33 4 6 22 19 3 13 25 346 52 18 345 346 341 8 347 335 342 330 320 307 16 50 33 6 150 207 166 344 308 295 263 61 32 337 33 79 356 360 17 334 286 281 281 31 41 323 360 8 325 330 278 194 195 192 193 194 198 194 195 197 197 188 199 200 194 192
124 114 108 92 85 91 76 74 78 65 48 33 39 40 10 31 40 38 9 4 11 34 17 4 26 13 334 72 28 343 3 333 360 337 340 327 323 330 322 340 35 354 336 7 309 263 177 230 295 272 191 203 27 323 65 227 205 202 222 224 260 42 96 95 334 244 185 177 260 300 251 193 202 198 196 203 205 199 203 200 189 195 200 196 200
85 89 98 103 113 108 114 88 76 66 58 34 19 34 352 28 35 42 14 335 43 22 22 3 9 352 9 46 22 9 344 345 337 348 340 328 318 314 326 337 21 359 327 324 331 310 355 107 253 280 236 151 204 258 237 212 189 201 207 289 343 354 107 110 166 261 211 192 164 197 276 258 218 206 201 204 204 208 205 203 191 198 199 200 197
142 113 119 133 130 127 103 108 86 59 54 34 36 28 355 18 30 21 23 339 10 38 13 19 4 30 353 56 31 19 346 345 338 339 328 319 307 302 311 352 9 334 318 357 326 351 331 277 186 217 234 179 223 212 202 205 166 183 235 151 307 279 36 103 138 244 300 214 211 150 149 327 310 269 224 208 204 214 208 200 199 194 201 204 200
117 131 136 129 146 127 141 92 111 128 90 74 27 37 23 355 48 8 8 7 342 7 23 6 26 34 355 55 34 20 341 351 336 330 319 304 291 310 342 11 341 321 341 340 302 277 61 323 347 329 342 14 227 205 200 178 204 234 196 141 213 187 140 144 147 205 217 223 212 181 164 176 176 274 278 235 206 215 209 201 203 202 200 201 202
109 90 106 129 156 137 163 123 147 120 98 45 73 47 17 347 293 73 327 68 8 346 19 18 19 30 350 58 41 19 5 343 333 337 328 315 322 344 341 15 340 328 357 345 319 332 28 6 345 335 328 339 300 244 207 188 195 229 167 167 164 95 204 128 241 217 167 188 225 194 172 172 155 173 229 273 215 210 220 209 205 207 203 199 200
135 133 137 195 157 136 172 131 164 129 102 124 15 85 293 328 330 13 229 268 84 10 345 32 42 20 360 19 48 21 349 340 328 352 328 322 336 350 341 354 327 358 5 340 325 332 351 348 341 330 345 301 309 333 5 344 301 109 105 220 156 152 200 118 198 248 192 167 192 195 178 202 171 172 143 203 298 294 213 212 212 208 208 207 206
128 127 174 200 210 139 166 156 116 107 61 11 69 321 218 267 15 309 337 353 76 66 335 29 38 34 18 5 26 15 323 336 338 337 316 291 346 326 331 349 334 358 353 338 343 333 11 8 337 330 317 302 311 326 322 132 269 195 209 221 198 173 161 185 195 238 213 178 195 196 180 177 178 150 163 155 152 236 261 214 215 213 207 203 212
146 135 152 179 40 241 152 171 165 152 301 18 259 276 8 336 329 327 345 342 358 116 96 44 6 48 7 352 31 346 350 351 348 322 308 350 353 337 344 326 343 329 344 7 352 338 8 355 334 335 332 319 297 302 303 311 294 258 230 231 210 184 123 95 317 241 258 223 221 181 109 171 246 174 160 160 159 185 190 210 213 247 211 205 208
159 164 121 173 187 287 251 150 152 150 19 301 287 308 21 6 319 320 294 323 295 96 54 86 37 58 14 347 21 344 5 346 336 343 339 12 357 337 333 351 343 337 26 10 347 331 352 342 327 328 327 322 321 23 31 311 287 298 8 305 260 164 90 34 273 10 301 318 344 35 150 142 220 276 164 156 135 158 142 140 206 253 228 204 203
171 178 138 199 191 227 237 192 157 72 45 336 336 10 33 327 317 355 320 298 334 356 103 65 54 17 54 345 357 29 344 332 337 342 7 15 355 322 328 357 5 8 13 358 335 317 356 345 327 325 326 339 334 4 30 326 306 306 209 216 239 118 56 324 168 196 215 199 184 76 221 151 158 272 308 131 143 166 147 192 208 219 219 203 199
177 182 180 172 195 206 216 216 109 43 316 10 14 11 330 210 287 269 288 301 15 332 355 59 97 77 65 36 346 17 6 337 318 341 37 23 350 335 331 343 29 349 354 340 354 335 7 347 341 343 351 350 341 14 19 355 332 341 328 322 300 81 131 175 339 112 326 119 133 158 143 218 155 182 217 131 131 173 163 197 190 216 203 192 186
178 186 191 192 188 193 190 194 151 161 205 47 346 284 324 336 325 306 326 334 293 9 333 308 107 98 60 63 4 337 40 345 326 335 38 32 345 333 334 335 15 347 345 348 0 347 357 354 351 1 351 349 350 13 349 37 329 322 289 267 325 62 36 12 39 11 300 300 96 39 208 207 176 157 191 147 141 140 129 226 201 200 216 191 189
175 187 183 201 201 193 193 192 176 155 101 119 247 251 215 267 270 286 325 322 334 315 293 310 20 58 49 24 52 339 13 20 350 338 26 24 1 347 348 344 354 355 349 345 10 358 350 349 3 360 1 355 355 351 358 32 10 343 347 359 295 270 84 31 345 146 328 284 202 212 256 241 228 152 150 159 154 142 149 218 224 191 178 173 283
181 184 180 194 199 204 198 203 161 162 166 160 222 296 356 308 284 325 326 331 323 290 333 329 328 70 38 52 60 340 340 43 346 341 352 23 3 346 351 354 357 6 3 347 2 359 338 354 11 8 4 353 346 340 345 17 21 13 18 334 344 29 46 267 308 276 300 325 294 229 260 302 260 194 171 154 145 163 163 199 206 197 163 178 191
197 174 174 187 201 193 199 195 147 172 173 178 188 100 232 241 95 297 251 256 261 224 270 251 312 71 303 107 98 23 359 38 359 345 9 359 348 347 353 1 0 354 3 359 352 355 356 4 12 1 355 357 349 344 351 355 20 158 132 177 195 323 320 300 284 349 212 290 268 283 181 203 294 246 185 169 166 162 172 195 199 199 164 157 165
194 176 176 192 197 194 191 191 177 175 181 189 186 189 190 217 213 213 226 229 259 313 203 186 297 2 19 20 87 59 25 15 355 348 17 358 349 358 347 360 2 341 357 10 359 3 354 355 7 2 353 345 353 349 357 344 344 19 12 11 35 212 9 308 360 319 315 285 307 357 350 312 263 274 241 153 140 196 188 182 197 218 222 165 169
202 191 177 178 187 193 188 191 185 195 195 186 193 186 218 213 216 235 238 222 207 228 173 72 305 130 283 197 108 93 70 16 0 15 10 9 359 355 353 352 348 349 340 22 9 350 354 353 352 352 340 348 348 352 341 345 358 348 359 353 357 356 87 312 73 346 300 310 304 325 223 274 299 285 283 236 183 192 230 201 181 203 231 214 175
202 197 172 162 171 181 183 188 196 197 197 204 209 195 207 192 209 214 233 218 273 238 202 167 229 46 229 326 55 107 139 106 28 33 18 23 5 345 357 343 341 353 348 10 5 350 349 352 342 344 345 344 350 341 345 346 349 357 355 353 340 358 19 33 24 66 318 324 302 324 310 301 265 247 233 231 203 184 192 220 242 223 221 216 201
198 185 194 159 181 173 194 200 206 203 211 216 217 209 209 207 201 238 236 198 223 200 264 164 153 241 296 329 318 111 164 133 98 25 30 18 57 360 347 336 340 355 357 359 360 345 352 345 340 327 334 344 343 344 357 349 342 355 9 347 346 346 354 359 24 2 304 235 300 322 322 311 321 284 175 196 212 215 204 176 185 227 234 230 215
157 210 203 183 162 191 196 202 206 208 216 218 222 219 201 199 209 222 230 233 229 208 193 199 170 210 229 84 306 256 279 95 117 78 74 5 62 11 352 350 349 349 356 357 345 347 349 347 337 334 350 2 357 358 3 351 347 5 355 8 356 351 340 338 350 351 330 325 327 309 285 277 256 291 237 190 193 198 204 195 192 207 220 231 230